BRU619 UMMS-ESSA

Flight info

Callsign BRU619
Flight time 1h 26m
Altitude 38000
Route KUBIN2F KUBIN Y130 PODIL DCT ERIVA DCT NEBSI L870 XILAN
Aircraft A20N/M-SDE2E3FGHIRWXY/LB1

Departure

Time 2026-05-05 07:04
Airport Minsk National Airport (UMMS)

Arrival

Time 2026-05-05 08:30
Airport Stockholm-Arlanda Airport (ESSA)
Time Latitude Longitude Altitude Speed Heading
2026-05-05 06:40 53.88884 28.03498 634 ft 0 kts 332°
2026-05-05 06:56 53.88878 28.03503 635 ft 2 kts 332°
2026-05-05 06:56 53.88867 28.03513 642 ft 2 kts 332°
2026-05-05 06:56 53.88855 28.03523 641 ft 2 kts 338°
2026-05-05 06:57 53.88844 28.03531 635 ft 2 kts 348°
2026-05-05 06:57 53.88831 28.03533 635 ft 2 kts 10°
2026-05-05 06:57 53.88819 28.03527 640 ft 2 kts 32°
2026-05-05 06:57 53.88812 28.03519 639 ft 0 kts 47°
2026-05-05 06:58 53.88812 28.03520 639 ft 0 kts 47°
2026-05-05 06:58 53.88821 28.03535 639 ft 4 kts 48°
2026-05-05 06:58 53.88844 28.03593 634 ft 8 kts 56°
2026-05-05 06:59 53.88888 28.03678 638 ft 11 kts 47°
2026-05-05 06:59 53.88920 28.03804 634 ft 13 kts 97°
2026-05-05 06:59 53.88874 28.03936 637 ft 15 kts 123°
2026-05-05 06:59 53.88813 28.04079 634 ft 15 kts 92°
2026-05-05 07:00 53.88873 28.04229 638 ft 17 kts 48°
2026-05-05 07:00 53.88958 28.04391 636 ft 20 kts 49°
2026-05-05 07:00 53.89053 28.04578 634 ft 22 kts 49°
2026-05-05 07:00 53.89158 28.04787 639 ft 24 kts 49°
2026-05-05 07:01 53.89171 28.04936 634 ft 7 kts 141°
2026-05-05 07:01 53.89122 28.05001 634 ft 11 kts 140°
2026-05-05 07:01 53.89056 28.05100 641 ft 14 kts 138°
2026-05-05 07:01 53.88973 28.05226 634 ft 18 kts 138°
2026-05-05 07:02 53.88873 28.05377 634 ft 21 kts 138°
2026-05-05 07:02 53.88758 28.05546 634 ft 23 kts 140°
2026-05-05 07:02 53.88643 28.05716 636 ft 11 kts 131°
2026-05-05 07:02 53.88655 28.05830 635 ft 11 kts 29°
2026-05-05 07:03 53.88739 28.05817 634 ft 14 kts 345°
2026-05-05 07:03 53.88873 28.05753 635 ft 36 kts 334°
2026-05-05 07:03 53.89247 28.05219 639 ft 103 kts 319°
2026-05-05 07:03 53.89933 28.04207 645 ft 157 kts 319°
2026-05-05 07:04 53.90782 28.02960 1360 ft 156 kts 320°
2026-05-05 07:04 53.91580 28.01782 2173 ft 149 kts 320°
2026-05-05 07:04 53.92406 28.00556 2726 ft 167 kts 319°
2026-05-05 07:04 53.93308 27.99214 3340 ft 182 kts 317°
2026-05-05 07:05 53.94309 27.97725 3946 ft 202 kts 317°
2026-05-05 07:05 53.95355 27.95986 4575 ft 219 kts 311°
2026-05-05 07:05 53.96468 27.94024 5160 ft 242 kts 311°
2026-05-05 07:05 53.97690 27.91871 5860 ft 263 kts 311°
2026-05-05 07:06 53.98981 27.89611 6855 ft 268 kts 311°
2026-05-05 07:06 54.00277 27.87349 8020 ft 268 kts 310°
2026-05-05 07:06 54.01589 27.85052 9059 ft 274 kts 310°
2026-05-05 07:06 54.02924 27.82707 10083 ft 278 kts 310°
2026-05-05 07:07 54.04291 27.80294 10656 ft 298 kts 310°
2026-05-05 07:07 54.05806 27.77611 11079 ft 322 kts 310°
2026-05-05 07:07 54.07389 27.74817 11802 ft 331 kts 310°
2026-05-05 07:07 54.09036 27.72046 12753 ft 336 kts 315°
2026-05-05 07:08 54.10856 27.69486 13705 ft 341 kts 316°
2026-05-05 07:08 54.12699 27.66901 14539 ft 345 kts 316°
2026-05-05 07:08 54.14555 27.64280 15362 ft 349 kts 316°
2026-05-05 07:08 54.16434 27.61616 16191 ft 353 kts 316°
2026-05-05 07:09 54.18332 27.58921 16995 ft 357 kts 316°
2026-05-05 07:09 54.20251 27.56195 17783 ft 361 kts 316°
2026-05-05 07:09 54.22190 27.53434 18531 ft 365 kts 316°
2026-05-05 07:09 54.24145 27.50653 19280 ft 367 kts 316°
2026-05-05 07:10 54.26134 27.47887 19963 ft 372 kts 321°
2026-05-05 07:10 54.28463 27.45836 20651 ft 383 kts 337°
2026-05-05 07:10 54.31116 27.44992 21310 ft 396 kts 354°
2026-05-05 07:10 54.33886 27.45493 21971 ft 408 kts 10°
2026-05-05 07:11 54.36555 27.47307 22623 ft 419 kts 24°
2026-05-05 07:11 54.39075 27.49745 23258 ft 424 kts 27°
2026-05-05 07:11 54.41615 27.52368 23838 ft 428 kts 27°
2026-05-05 07:11 54.44178 27.55004 24373 ft 431 kts 27°
2026-05-05 07:12 54.46775 27.57625 24864 ft 436 kts 26°
2026-05-05 07:12 54.49423 27.60252 25301 ft 441 kts 25°
2026-05-05 07:12 54.52210 27.62368 25818 ft 436 kts 12°
2026-05-05 07:12 54.55166 27.63290 26288 ft 431 kts 358°
2026-05-05 07:13 54.58130 27.62975 26755 ft 425 kts 344°
2026-05-05 07:13 54.60921 27.61464 27219 ft 418 kts 330°
2026-05-05 07:13 54.63383 27.58868 27662 ft 413 kts 316°
2026-05-05 07:13 54.65389 27.55378 28106 ft 409 kts 304°
2026-05-05 07:14 54.67131 27.51474 28536 ft 412 kts 304°
2026-05-05 07:14 54.68890 27.47553 28964 ft 414 kts 304°
2026-05-05 07:14 54.70672 27.43613 29362 ft 417 kts 304°
2026-05-05 07:14 54.72471 27.39650 29774 ft 420 kts 304°
2026-05-05 07:15 54.74284 27.35663 30162 ft 423 kts 304°
2026-05-05 07:15 54.76106 27.31653 30561 ft 424 kts 304°
2026-05-05 07:15 54.77933 27.27625 30960 ft 426 kts 304°
2026-05-05 07:15 54.79760 27.23589 31414 ft 425 kts 304°
2026-05-05 07:16 54.81580 27.19564 31943 ft 423 kts 304°
2026-05-05 07:16 54.83387 27.15561 32480 ft 420 kts 304°
2026-05-05 07:16 54.85183 27.11577 33012 ft 418 kts 304°
2026-05-05 07:16 54.86961 27.07625 33686 ft 412 kts 303°
2026-05-05 07:17 54.88713 27.03726 34243 ft 408 kts 303°
2026-05-05 07:17 54.90455 26.99835 34565 ft 408 kts 303°
2026-05-05 07:17 54.92176 26.95984 34830 ft 410 kts 303°
2026-05-05 07:17 54.93880 26.92166 35101 ft 411 kts 303°
2026-05-05 07:18 54.95633 26.88236 35383 ft 411 kts 303°
2026-05-05 07:18 54.97384 26.84302 35657 ft 412 kts 303°
2026-05-05 07:18 54.99143 26.80347 35940 ft 413 kts 303°
2026-05-05 07:18 55.00902 26.76384 36192 ft 414 kts 303°
2026-05-05 07:19 55.02662 26.72412 36440 ft 414 kts 303°
2026-05-05 07:19 55.04423 26.68432 36695 ft 415 kts 303°
2026-05-05 07:19 55.06187 26.64440 36977 ft 416 kts 303°
2026-05-05 07:19 55.07953 26.60435 37196 ft 417 kts 303°
2026-05-05 07:20 55.09723 26.56417 37426 ft 418 kts 303°
2026-05-05 07:20 55.11493 26.52391 37649 ft 419 kts 304°
2026-05-05 07:20 55.13386 26.48500 37860 ft 422 kts 309°
2026-05-05 07:21 55.17770 26.41571 37912 ft 426 kts 316°
2026-05-05 07:21 55.22304 26.35037 37901 ft 425 kts 316°
2026-05-05 07:22 55.26863 26.28429 37911 ft 425 kts 316°
2026-05-05 07:22 55.31426 26.21813 37904 ft 426 kts 316°
2026-05-05 07:23 55.35989 26.15180 37901 ft 425 kts 316°
2026-05-05 07:23 55.40549 26.08532 37900 ft 426 kts 315°
2026-05-05 07:24 55.45099 26.01878 37897 ft 425 kts 315°
2026-05-05 07:24 55.49642 25.95212 37890 ft 425 kts 315°
2026-05-05 07:25 55.54179 25.88535 37893 ft 425 kts 315°
2026-05-05 07:25 55.58711 25.81845 37891 ft 424 kts 315°
2026-05-05 07:26 55.63231 25.75152 37886 ft 424 kts 315°
2026-05-05 07:26 55.67721 25.68483 37885 ft 424 kts 315°
2026-05-05 07:27 55.72227 25.61769 37882 ft 423 kts 315°
2026-05-05 07:27 55.76734 25.55032 37881 ft 423 kts 315°
2026-05-05 07:28 55.81239 25.48276 37892 ft 424 kts 315°
2026-05-05 07:28 55.85744 25.41501 37880 ft 424 kts 315°
2026-05-05 07:29 55.90248 25.34705 37879 ft 424 kts 315°
2026-05-05 07:29 55.94747 25.27895 37878 ft 424 kts 315°
2026-05-05 07:30 55.99244 25.21067 37872 ft 424 kts 315°
2026-05-05 07:30 56.05952 25.10841 37872 ft 425 kts 315°
2026-05-05 07:31 56.10443 25.03967 37867 ft 425 kts 315°
2026-05-05 07:31 56.14937 24.97068 37870 ft 425 kts 315°
2026-05-05 07:32 56.19428 24.90152 37866 ft 425 kts 315°
2026-05-05 07:32 56.23915 24.83217 37867 ft 426 kts 315°
2026-05-05 07:33 56.28404 24.76257 37853 ft 427 kts 315°
2026-05-05 07:33 56.32897 24.69271 37853 ft 427 kts 314°
2026-05-05 07:34 56.37396 24.62270 37858 ft 427 kts 315°
2026-05-05 07:34 56.42157 24.55765 37855 ft 431 kts 320°
2026-05-05 07:35 56.47027 24.49445 37860 ft 431 kts 319°
2026-05-05 07:35 56.51858 24.43039 37861 ft 431 kts 319°
2026-05-05 07:36 56.56649 24.36607 37856 ft 431 kts 319°
2026-05-05 07:36 56.61464 24.30110 37859 ft 432 kts 319°
2026-05-05 07:37 56.66283 24.23585 37856 ft 432 kts 319°
2026-05-05 07:37 56.71107 24.17035 37857 ft 433 kts 319°
2026-05-05 07:38 56.75926 24.10469 37858 ft 433 kts 319°
2026-05-05 07:38 56.80745 24.03883 37884 ft 433 kts 318°
2026-05-05 07:39 56.85564 23.97276 37866 ft 433 kts 318°
2026-05-05 07:39 56.90374 23.90657 37865 ft 433 kts 318°
2026-05-05 07:40 56.95179 23.84025 37862 ft 432 kts 318°
2026-05-05 07:40 56.99948 23.77419 37851 ft 432 kts 318°
2026-05-05 07:41 57.04741 23.70759 37846 ft 432 kts 318°
2026-05-05 07:41 57.09529 23.64081 37843 ft 432 kts 318°
2026-05-05 07:42 57.14309 23.57396 37836 ft 431 kts 318°
2026-05-05 07:42 57.19083 23.50696 37835 ft 431 kts 318°
2026-05-05 07:43 57.23047 23.45114 37834 ft 431 kts 318°
2026-05-05 07:43 57.28584 23.37294 37833 ft 431 kts 318°
2026-05-05 07:44 57.33348 23.30541 37830 ft 431 kts 317°
2026-05-05 07:44 57.37335 23.24873 37851 ft 431 kts 317°
2026-05-05 07:45 57.42066 23.18126 37845 ft 431 kts 317°
2026-05-05 07:45 57.46815 23.11329 37860 ft 431 kts 317°
2026-05-05 07:46 57.51568 23.04503 37840 ft 431 kts 317°
2026-05-05 07:46 57.56313 22.97666 37835 ft 431 kts 317°
2026-05-05 07:47 57.61051 22.90818 37839 ft 431 kts 317°
2026-05-05 07:47 57.65787 22.83951 37844 ft 431 kts 317°
2026-05-05 07:48 57.70511 22.77072 37843 ft 430 kts 317°
2026-05-05 07:48 57.75197 22.70229 37840 ft 430 kts 316°
2026-05-05 07:49 57.79902 22.63332 37832 ft 429 kts 316°
2026-05-05 07:49 57.84599 22.56426 37828 ft 429 kts 316°
2026-05-05 07:50 57.89288 22.49508 37841 ft 429 kts 316°
2026-05-05 07:50 57.93955 22.42604 37832 ft 425 kts 316°
2026-05-05 07:51 57.98600 22.35700 37827 ft 426 kts 316°
2026-05-05 07:51 58.03246 22.28773 37837 ft 426 kts 316°
2026-05-05 07:52 58.07858 22.21875 37835 ft 426 kts 316°
2026-05-05 07:52 58.12498 22.14911 37826 ft 426 kts 316°
2026-05-05 07:53 58.17129 22.07937 37863 ft 426 kts 316°
2026-05-05 07:53 58.21768 22.00927 37826 ft 426 kts 315°
2026-05-05 07:54 58.26403 21.93900 37823 ft 426 kts 315°
2026-05-05 07:54 58.31035 21.86852 37828 ft 427 kts 315°
2026-05-05 07:55 58.35671 21.79773 37825 ft 427 kts 315°
2026-05-05 07:55 58.40262 21.72739 37823 ft 426 kts 315°
2026-05-05 07:56 58.44881 21.65638 37854 ft 426 kts 315°
2026-05-05 07:56 58.49498 21.58515 37822 ft 426 kts 315°
2026-05-05 07:57 58.54103 21.51386 37815 ft 426 kts 315°
2026-05-05 07:57 58.58699 21.44246 37811 ft 425 kts 315°
2026-05-05 07:58 58.63283 21.37099 37808 ft 425 kts 315°
2026-05-05 07:58 58.67861 21.29936 37806 ft 424 kts 315°
2026-05-05 07:59 58.72420 21.22784 37560 ft 420 kts 314°
2026-05-05 07:59 58.74648 21.19283 37070 ft 418 kts 314°
2026-05-05 07:59 58.76901 21.15730 36613 ft 418 kts 313°
2026-05-05 08:00 58.79152 21.12170 36450 ft 420 kts 313°
2026-05-05 08:00 58.81415 21.08586 36348 ft 422 kts 313°
2026-05-05 08:00 58.83688 21.04987 36193 ft 422 kts 313°
2026-05-05 08:00 58.85954 21.01399 36025 ft 420 kts 313°
2026-05-05 08:01 58.88205 20.97831 35735 ft 418 kts 313°
2026-05-05 08:01 58.90448 20.94266 35514 ft 418 kts 313°
2026-05-05 08:01 58.92701 20.90673 35340 ft 421 kts 313°
2026-05-05 08:01 58.94963 20.87064 35103 ft 421 kts 313°
2026-05-05 08:02 58.97220 20.83460 34839 ft 420 kts 312°
2026-05-05 08:02 58.99466 20.79867 34579 ft 419 kts 312°
2026-05-05 08:02 59.01711 20.76272 34354 ft 418 kts 311°
2026-05-05 08:02 59.03952 20.72676 34087 ft 417 kts 311°
2026-05-05 08:03 59.06188 20.69079 33832 ft 417 kts 311°
2026-05-05 08:03 59.08419 20.65480 33535 ft 417 kts 311°
2026-05-05 08:03 59.10653 20.61869 33233 ft 418 kts 311°
2026-05-05 08:03 59.12870 20.58231 32982 ft 413 kts 307°
2026-05-05 08:04 59.14704 20.54071 32711 ft 400 kts 297°
2026-05-05 08:04 59.16300 20.49633 32448 ft 401 kts 297°
2026-05-05 08:04 59.17901 20.45183 32181 ft 401 kts 297°
2026-05-05 08:04 59.19503 20.40725 31918 ft 401 kts 297°
2026-05-05 08:05 59.21084 20.36319 31672 ft 402 kts 297°
2026-05-05 08:05 59.22684 20.31851 31416 ft 402 kts 297°
2026-05-05 08:05 59.24282 20.27381 31203 ft 400 kts 297°
2026-05-05 08:05 59.25873 20.22922 30951 ft 400 kts 296°
2026-05-05 08:06 59.27461 20.18456 30699 ft 400 kts 296°
2026-05-05 08:06 59.29049 20.13982 30452 ft 400 kts 296°
2026-05-05 08:06 59.30629 20.09525 30207 ft 398 kts 296°
2026-05-05 08:06 59.32201 20.05085 29958 ft 395 kts 296°
2026-05-05 08:07 59.33761 20.00667 29691 ft 394 kts 296°
2026-05-05 08:07 59.35314 19.96261 29401 ft 392 kts 296°
2026-05-05 08:07 59.36856 19.91875 29047 ft 390 kts 296°
2026-05-05 08:07 59.38391 19.87502 28472 ft 387 kts 296°
2026-05-05 08:08 59.39906 19.83183 27909 ft 382 kts 296°
2026-05-05 08:08 59.41397 19.78925 27359 ft 375 kts 296°
2026-05-05 08:08 59.42861 19.74737 26806 ft 369 kts 296°
2026-05-05 08:08 59.44301 19.70603 26279 ft 363 kts 296°
2026-05-05 08:09 59.45717 19.66536 25754 ft 357 kts 296°
2026-05-05 08:09 59.47105 19.62536 25243 ft 352 kts 295°
2026-05-05 08:09 59.48476 19.58581 24721 ft 347 kts 295°
2026-05-05 08:09 59.49825 19.54682 24226 ft 343 kts 295°
2026-05-05 08:10 59.51157 19.50823 23726 ft 338 kts 295°
2026-05-05 08:10 59.52472 19.47008 23169 ft 335 kts 295°
2026-05-05 08:10 59.53768 19.43248 22690 ft 329 kts 295°
2026-05-05 08:10 59.55023 19.39603 22220 ft 323 kts 295°
2026-05-05 08:11 59.56282 19.35926 21747 ft 332 kts 295°
2026-05-05 08:11 59.57612 19.31985 21226 ft 355 kts 295°
2026-05-05 08:11 59.59004 19.27891 20690 ft 362 kts 296°
2026-05-05 08:11 59.60416 19.23774 20146 ft 361 kts 296°
2026-05-05 08:12 59.61817 19.19699 19612 ft 356 kts 296°
2026-05-05 08:12 59.63193 19.15686 19079 ft 349 kts 296°
2026-05-05 08:12 59.64436 19.11660 18553 ft 335 kts 287°
2026-05-05 08:12 59.65099 19.07379 18053 ft 319 kts 274°
2026-05-05 08:13 59.65160 19.03095 17551 ft 307 kts 262°
2026-05-05 08:13 59.64705 18.99046 17089 ft 298 kts 253°
2026-05-05 08:13 59.64135 18.95157 16642 ft 291 kts 254°
2026-05-05 08:13 59.63588 18.91354 16203 ft 285 kts 254°
2026-05-05 08:14 59.63054 18.87627 15764 ft 279 kts 254°
2026-05-05 08:14 59.62529 18.83972 15338 ft 274 kts 254°
2026-05-05 08:14 59.62012 18.80382 14924 ft 269 kts 254°
2026-05-05 08:14 59.61498 18.76830 14523 ft 286 kts 254°
2026-05-05 08:15 59.60927 18.72893 14059 ft 308 kts 254°
2026-05-05 08:15 59.60328 18.68778 13574 ft 314 kts 254°
2026-05-05 08:15 59.59724 18.64639 13066 ft 312 kts 254°
2026-05-05 08:15 59.59128 18.60568 12596 ft 304 kts 254°
2026-05-05 08:16 59.58549 18.56611 12140 ft 296 kts 254°
2026-05-05 08:16 59.57982 18.52756 11695 ft 289 kts 254°
2026-05-05 08:16 59.57427 18.48987 11258 ft 283 kts 254°
2026-05-05 08:16 59.56882 18.45292 10828 ft 278 kts 254°
2026-05-05 08:17 59.56346 18.41668 10410 ft 273 kts 254°
2026-05-05 08:17 59.55819 18.38110 10084 ft 266 kts 254°
2026-05-05 08:17 59.55313 18.34707 9954 ft 253 kts 254°
2026-05-05 08:17 59.54905 18.31387 9613 ft 248 kts 264°
2026-05-05 08:18 59.55110 18.28060 9437 ft 248 kts 285°
2026-05-05 08:18 59.56010 18.25079 9291 ft 260 kts 308°
2026-05-05 08:18 59.57530 18.23061 9151 ft 273 kts 332°
2026-05-05 08:18 59.59451 18.22510 8870 ft 289 kts 358°
2026-05-05 08:19 59.61431 18.23119 8469 ft 293 kts
2026-05-05 08:19 59.63425 18.23911 8085 ft 291 kts
2026-05-05 08:19 59.65399 18.24707 7705 ft 288 kts
2026-05-05 08:19 59.67351 18.25469 7322 ft 284 kts
2026-05-05 08:20 59.69285 18.26198 6946 ft 281 kts
2026-05-05 08:20 59.71196 18.26903 6572 ft 278 kts
2026-05-05 08:20 59.73086 18.27594 6199 ft 275 kts
2026-05-05 08:20 59.74954 18.28278 5821 ft 272 kts
2026-05-05 08:21 59.76802 18.28956 5478 ft 269 kts
2026-05-05 08:21 59.78631 18.29630 5099 ft 266 kts
2026-05-05 08:21 59.80440 18.30295 4736 ft 263 kts
2026-05-05 08:21 59.82230 18.30942 4371 ft 259 kts
2026-05-05 08:22 59.83965 18.30634 4027 ft 247 kts 336°
2026-05-05 08:22 59.85355 18.28784 3865 ft 245 kts 310°
2026-05-05 08:22 59.86182 18.25794 3560 ft 252 kts 284°
2026-05-05 08:22 59.86160 18.22361 3407 ft 248 kts 256°
2026-05-05 08:23 59.85420 18.19350 3295 ft 238 kts 242°
2026-05-05 08:23 59.84593 18.16592 3194 ft 226 kts 242°
2026-05-05 08:23 59.83809 18.13965 3103 ft 216 kts 242°
2026-05-05 08:23 59.83066 18.11462 3017 ft 204 kts 242°
2026-05-05 08:24 59.82366 18.09096 2912 ft 193 kts 242°
2026-05-05 08:24 59.81712 18.06891 2843 ft 182 kts 243°
2026-05-05 08:24 59.81088 18.04786 2801 ft 169 kts 243°
2026-05-05 08:24 59.80492 18.02949 2722 ft 146 kts 234°
2026-05-05 08:25 59.79754 18.01774 2603 ft 131 kts 214°
2026-05-05 08:25 59.78867 18.01064 2559 ft 142 kts 202°
2026-05-05 08:25 59.77930 18.00642 2483 ft 134 kts 197°
2026-05-05 08:25 59.77025 18.00312 2423 ft 132 kts 197°
2026-05-05 08:26 59.76115 17.99976 2354 ft 133 kts 197°
2026-05-05 08:26 59.75206 17.99644 2217 ft 132 kts 197°
2026-05-05 08:26 59.74264 17.99292 2067 ft 157 kts 197°
2026-05-05 08:26 59.73179 17.98907 1837 ft 150 kts 196°
2026-05-05 08:27 59.72216 17.98559 1653 ft 134 kts 198°
2026-05-05 08:27 59.71320 17.98229 1473 ft 131 kts 197°
2026-05-05 08:27 59.70424 17.97902 1292 ft 131 kts 198°
2026-05-05 08:27 59.69527 17.97574 1108 ft 131 kts 197°
2026-05-05 08:28 59.68653 17.97260 927 ft 126 kts 197°
2026-05-05 08:28 59.67778 17.96940 748 ft 128 kts 196°
2026-05-05 08:28 59.66917 17.96623 590 ft 126 kts 198°
2026-05-05 08:28 59.66047 17.96309 412 ft 125 kts 197°
2026-05-05 08:29 59.65193 17.96004 260 ft 127 kts 196°
2026-05-05 08:29 59.64352 17.95720 145 ft 110 kts 194°
2026-05-05 08:29 59.63717 17.95472 145 ft 73 kts 190°
2026-05-05 08:30 59.63255 17.95032 138 ft 0 kts 242°
2026-05-05 08:30 59.63253 17.95024 138 ft 3 kts 242°
2026-05-05 08:31 59.63246 17.94969 138 ft 6 kts 271°
2026-05-05 08:31 59.63279 17.94918 138 ft 7 kts 356°
2026-05-05 08:31 59.63344 17.94925 138 ft 11 kts
2026-05-05 08:31 59.63434 17.94956 138 ft 15 kts 10°
2026-05-05 08:32 59.63549 17.94997 138 ft 18 kts 10°
2026-05-05 08:32 59.63686 17.95046 138 ft 22 kts 11°
2026-05-05 08:32 59.63843 17.95104 138 ft 24 kts 10°
2026-05-05 08:32 59.64017 17.95167 138 ft 27 kts 11°
2026-05-05 08:33 59.64206 17.95234 138 ft 29 kts 10°
2026-05-05 08:33 59.64409 17.95308 138 ft 31 kts
2026-05-05 08:33 59.64623 17.95388 138 ft 32 kts 11°
2026-05-05 08:33 59.64848 17.95467 138 ft 33 kts 10°
2026-05-05 08:34 59.65068 17.95500 138 ft 32 kts 348°
2026-05-05 08:34 59.65287 17.95388 137 ft 33 kts 345°
2026-05-05 08:34 59.65512 17.95270 138 ft 34 kts 345°
2026-05-05 08:34 59.65703 17.95164 138 ft 23 kts 339°
2026-05-05 08:35 59.65736 17.94911 138 ft 20 kts 258°
2026-05-05 08:35 59.65702 17.94631 138 ft 22 kts 257°
2026-05-05 08:35 59.65665 17.94333 137 ft 23 kts 256°
2026-05-05 08:35 59.65624 17.94016 137 ft 24 kts 256°
2026-05-05 08:36 59.65581 17.93686 137 ft 25 kts 256°
2026-05-05 08:36 59.65546 17.93415 137 ft 16 kts 247°
2026-05-05 08:36 59.65454 17.93343 137 ft 15 kts 167°
2026-05-05 08:36 59.65363 17.93384 137 ft 7 kts 167°
2026-05-05 08:37 59.65334 17.93455 137 ft 8 kts 93°
2026-05-05 08:37 59.65356 17.93557 137 ft 0 kts 73°
2026-05-05 08:37 59.65356 17.93559 137 ft 0 kts 73°